This demonstration page uses our WeatherBlox Daily Observations layout. Learn more.

Left ArrowRight Arrow

39.92423, -83.80882

Hourly Observations for September 15, 2020

Temp ( °F °C ) Dew Point ( °F °C ) Humidity (%) Winds ( mph kmh ) Pressure ( in mb ) Visibility ( mi km ) Precip ( " mm )
12:56 am 00:56 Clear 53 11.7 52 11.1 96 96 ENE 7 11 30.35 1028 10 16 N/A
1:56 am 01:56 Clear 51 10.6 51 10.6 100 100 ENE 6 9 30.35 1028 10 16 N/A
2:56 am 02:56 Clear 49 9.4 49 9.4 100 100 E 5 7 30.35 1028 10 16 N/A
3:56 am 03:56 Clear 48 8.9 48 8.9 100 100 ENE 6 9 30.35 1028 10 16 N/A
4:56 am 04:56 Clear 48 8.9 48 8.9 100 100 E 5 7 30.35 1028 10 16 N/A
5:56 am 05:56 Clear 46 7.8 46 7.8 100 100 N N/A 30.34 1028 10 16 N/A
6:56 am 06:56 Clear 46 7.8 46 7.8 100 100 NNE 6 9 30.34 1028 10 16 N/A
7:56 am 07:56 Sunny 47 8.3 47 8.3 100 100 E 5 7 30.35 1028 10 16 N/A
8:56 am 08:56 Sunny 51 10.6 51 10.6 100 100 E 7 11 30.35 1028 10 16 N/A
9:56 am 09:56 Sunny 55 12.8 52 11.1 90 90 E 6 9 30.34 1027 10 16 0.01 0.25
10:56 am 10:56 Sunny 59 15 51 10.6 75 75 undefined N/A 30.33 1027 10 16 N/A
11:56 am 11:56 Sunny 62 16.7 51 10.6 67 67 ENE 10 17 30.32 1027 10 16 N/A
12:56 pm 12:56 Sunny 66 18.9 51 10.6 59 59 ESE 9 15 30.30 1026 10 16 N/A
1:56 pm 13:56 Sunny 67 19.4 50 10 55 55 ESE 8 13 30.28 1025 10 16 N/A
2:56 pm 14:56 Sunny 69 20.6 50 10 51 51 E 8 13 30.25 1025 10 16 N/A
3:56 pm 15:56 Sunny 70 21.1 49 9.4 47 47 VRB 6 9 30.23 1024 10 16 N/A
4:56 pm 16:56 Sunny 71 21.7 49 9.4 46 46 VRB 5 7 30.21 1023 10 16 N/A
5:56 pm 17:56 Sunny 70 21.1 48 8.9 46 46 SE 5 7 30.21 1023 10 16 N/A
6:56 pm 18:56 Sunny 66 18.9 53 11.7 63 63 E 3 6 30.20 1023 8 13 N/A
7:56 pm 19:56 Clear 57 13.9 53 11.7 87 87 ENE 5 7 30.21 1023 10 16 N/A
8:56 pm 20:56 Clear 55 12.8 52 11.1 90 90 E 3 6 30.22 1023 10 16 N/A
9:56 pm 21:56 Clear 53 11.7 52 11.1 96 96 E 5 7 30.22 1023 10 16 N/A
10:56 pm 22:56 Clear 54 12.2 52 11.1 93 93 SE 3 6 30.20 1023 10 16 N/A
11:56 pm 23:56 Clear 49 9.4 49 9.4 100 100 N N/A 30.19 1022 10 16 N/A

Powered by AerisWeather